{"data":{"norad_id":55428,"intl_designator":"2023-014AP","name":"STARLINK-5064","alt_names":[],"object_type":"PAYLOAD","status":"ACTIVE","operator":null,"country":"US","launch_date":"2023-01-31","launch_site_code":"AFWTR","launch_vehicle":null,"mission":null,"orbit_class":"UNKNOWN","rcs_meters":null,"size_class":null,"mass_kg":null,"dimensions":null,"purposes":["comms"],"wikipedia_slug":null,"has_3d_model":false,"image_url":null,"decayed_at":null,"tle_current":{"epoch":"2026-09-20T22:00:03.000096Z","epoch_age_seconds":60606,"freshness":"FRESH","line1":"1 55428U 23014AP  26263.91670139  .00083930  00000+0  58877-2 0  9998","line2":"2 55428  70.0026 312.3547 0003988 258.1322  48.2130 15.04691528  5764","mean_motion":15.04691528,"eccentricity":0.0003988,"inclination_deg":70.0026,"raan_deg":312.3547,"arg_perigee_deg":258.1322,"mean_anomaly_deg":48.213,"bstar":0.0058877,"rev_number":576,"period_min":95.700678391804,"perigee_km":549.6888132117,"apogee_km":555.21665158226,"semimajor_km":6930.589732397,"source":"CELESTRAK","updated_at":"2026-09-21T09:00:33.221342Z"}}}